COSMOS 2298 DEB

Satellite information

Favourite Embed

Satellite Type and Status

DEBRISIN ORBIT

Key statistics

Satellite COSMOS 2298 DEB at a glance.

Uptime

11317

Days in orbit

Revolutions

≈ 14.4

Per day

Orbit

LEO

Low Earth Orbit

Inclination

74.0

Latest

Satellite identification and parameters

Extended collection of information and parameters for COSMOS 2298 DEB.

Object identification

Identified? True

Debris? True

Object name: COSMOS 2298 DEB

International designator: 1994-083D

Object number (NORAD): 23434

Object ID (CCSDS): 23434

Country: COMMONWEALTH OF INDEPENDENT STATES (CIS)

Current information (Y/N): Y

RCS size: SMALL

Orbital parameters

Period: 100.102 minutes

Inclination: 74.0282 deg

SMA: 7141.501 km

Apoapsis: 772.172 km

Periapsis: 754.561 km

RAAN: 102.818 deg

Eccentricy: 0.00123294

Argument of periapsis: 331.6159 deg

Mean anomaly: 40.9604 deg

Mean motion: 14.38528495 rev/day

Mean motion (dot): 0.00001652 rev/day2

B* drag term: 0.00054855894 1/REarth

Two-line elements (TLE)

Creation date: Dec. 14, 2025, 3:07 a.m.

Reference frame: TEME

Reference center: EARTH

Epoch: Dec. 13, 2025, 1:55 p.m. UTC

TLE line 0: 0 COSMOS 2298 DEB

TLE line 1: 1 23434U 94083D 25347.58009022 .00001652 00000-0 54856-3 0 9992

TLE line 2: 2 23434 74.0282 102.8180 0012329 331.6159 40.9604 14.38528495617811

Live tracking on map

Real-time ground track for satellite COSMOS 2298 DEB.

In-orbit conjunctions

A list of the most updated potential collisions computed for object COSMOS 2298 DEB.

Target Orbit TCA Probability of collision Miss distance Type
FENGYUN 1C DEB SSO 2025-07-27 08:57:54 0.0001587845 172.0 (m) DEBRIS
FENGYUN 1C DEB SSO 2024-11-13 06:07:56 0.0004001249 811.0 (m) DEBRIS
IRIDIUM 36 LEO 2024-10-01 08:49:29 0.0001590695 756.0 (m) PAYLOAD
COSMOS 1125 LEO 2024-08-12 09:42:52 0.0001083453 305.0 (m) PAYLOAD
COSMOS 2251 DEB LEO 2024-05-29 21:27:18 0.0001841046 42.0 (m) DEBRIS

Associated space launch

Military communications satellite

COSMOS 2298 DEB was lifted into orbit during the mission ‘Kosmos-3M | Strela-2M 52’, on board a Kosmos-3M space rocket.

The launch took place on Dec. 20, 1994, 5:11 a.m. from 132/1 (132L).

For more information about the launch, click the button.

Launch to space Kosmos-3M | Strela-2M 52
Kosmos-3M | Strela-2M 52

Agency: N/A

Status: Launch Successful

Launch date: Dec. 20, 1994, 5:11 a.m. UTC

Rocket: Kosmos-3M

Launch pad: 132/1 (132L)

Location: Plesetsk Cosmodrome, Russian Federation

...

Latest news about this satellite

There are no fresh news available about this satellite. Check back as we update our databases every day.


Newsletter sign-up

Weekly statistics, charts and insights to help you stay on top of the space industry.